| time (UTC) | temp F | wind direction | speed MPH | gust MPH | rain 1hr in | rain 24hr in | rain mn in | humidity % | barometer mb |
| 20260506143057 | 49 | 125 | 6.0 | 14.0 | 0.00 | 0.00 | 0.00 | 66 | 1023.3 |
| 20260506142157 | 49 | 118 | 8.0 | 14.0 | 0.00 | 0.00 | 0.00 | 65 | 1023.5 |
| 20260506141259 | 50 | 134 | 4.0 | 11.0 | 0.00 | 0.00 | 0.00 | 66 | 1023.5 |
| 20260506140357 | 50 | 134 | 4.0 | 11.0 | 0.00 | 0.00 | 0.00 | 65 | 1023.5 |
| 20260506135710 | 50 | 129 | 4.0 | 11.0 | 0.00 | 0.00 | 0.00 | 67 | 1023.4 |
| 20260506134557 | 50 | 121 | 6.0 | 11.0 | 0.00 | 0.00 | 0.00 | 66 | 1023.5 |
| 20260506133657 | 47 | 135 | 8.0 | 11.0 | 0.00 | 0.00 | 0.00 | 66 | 1023.6 |
| 20260506132757 | 49 | 145 | 4.0 | 11.0 | 0.00 | 0.00 | 0.00 | 67 | 1023.5 |
| 20260506131857 | 49 | 103 | 4.0 | 13.0 | 0.00 | 0.00 | 0.00 | 65 | 1023.5 |
| 20260506131212 | 50 | 112 | 4.0 | 13.0 | 0.00 | 0.00 | 0.00 | 65 | 1023.5 |
| 20260506130057 | 50 | 101 | 8.0 | 13.0 | 0.00 | 0.00 | 0.00 | 65 | 1023.5 |
| 20260506125158 | 50 | 112 | 7.0 | 13.0 | 0.00 | 0.00 | 0.00 | 67 | 1023.6 |
| 20260506124509 | 50 | 112 | 5.0 | 9.0 | 0.00 | 0.00 | 0.00 | 66 | 1023.6 |
| 20260506123357 | 51 | 125 | 4.0 | 11.0 | 0.00 | 0.00 | 0.00 | 67 | 1023.5 |
| 20260506122459 | 50 | 118 | 6.0 | 11.0 | 0.00 | 0.00 | 0.00 | 65 | 1023.6 |
| 20260506121557 | 50 | 114 | 4.0 | 11.0 | 0.00 | 0.00 | 0.00 | 65 | 1023.8 |
| 20260506120659 | 50 | 127 | 4.0 | 11.0 | 0.00 | 0.00 | 0.00 | 65 | 1023.9 |
| 20260506115757 | 49 | 118 | 5.0 | 11.0 | 0.00 | 0.00 | 0.00 | 67 | 1023.6 |
| 20260506115108 | 49 | 121 | 8.0 | 11.0 | 0.00 | 0.00 | 0.00 | 65 | 1023.6 |
| 20260506113957 | 50 | 122 | 6.0 | 11.0 | 0.00 | 0.00 | 0.00 | 66 | 1024.0 |
| 20260506113057 | 50 | 138 | 4.0 | 9.0 | 0.00 | 0.00 | 0.00 | 63 | 1023.9 |
| 20260506112159 | 50 | 122 | 5.0 | 11.0 | 0.00 | 0.00 | 0.00 | 66 | 1024.1 |
| 20260506111257 | 49 | 128 | 5.0 | 11.0 | 0.00 | 0.00 | 0.00 | 67 | 1024.0 |
| 20260506110357 | 50 | 115 | 4.0 | 11.0 | 0.00 | 0.00 | 0.00 | 69 | 1024.0 |
| 20260506105457 | 50 | 126 | 4.0 | 8.0 | 0.00 | 0.00 | 0.00 | 68 | 1024.0 |
| 20260506104600 | 51 | 118 | 4.0 | 8.0 | 0.00 | 0.00 | 0.00 | 67 | 1024.2 |
| 20260506103907 | 50 | 122 | 4.0 | 8.0 | 0.00 | 0.00 | 0.00 | 69 | 1024.1 |
| 20260506102757 | 50 | 128 | 3.0 | 9.0 | 0.00 | 0.00 | 0.00 | 66 | 1024.3 |
| 20260506101858 | 48 | 125 | 6.0 | 9.0 | 0.00 | 0.00 | 0.00 | 66 | 1024.2 |
| 20260506100957 | 49 | 114 | 4.0 | 9.0 | 0.00 | 0.00 | 0.00 | 65 | 1024.2 |
| 20260506100058 | 49 | 123 | 2.0 | 8.0 | 0.00 | 0.00 | 0.00 | 64 | 1024.4 |
| 20260506095157 | 51 | 105 | 3.0 | 7.0 | 0.00 | 0.00 | 0.00 | 64 | 1024.3 |
| 20260506094258 | 51 | 337 | 0.0 | 2.0 | 0.00 | 0.00 | 0.00 | 61 | 1024.5 |
| 20260506093357 | 50 | 337 | 0.0 | 4.0 | 0.00 | 0.00 | 0.00 | 60 | 1024.7 |
| 20260506092457 | 50 | 337 | 0.0 | 2.0 | 0.00 | 0.00 | 0.00 | 56 | 1024.8 |
| 20260506091557 | 51 | 337 | 0.0 | 4.0 | 0.00 | 0.00 | 0.00 | 56 | 1024.7 |
| 20260506090911 | 49 | 337 | 0.0 | 4.0 | 0.00 | 0.00 | 0.00 | 55 | 1024.8 |
| 20260506085758 | 50 | 337 | 1.0 | 2.0 | 0.00 | 0.00 | 0.00 | 56 | 1025.0 |
| 20260506084857 | 49 | 0 | 0.0 | 0.0 | 0.00 | 0.00 | 0.00 | 58 | 1024.8 |
| 20260506083958 | 50 | 0 | 0.0 | 0.0 | 0.00 | 0.00 | 0.00 | 63 | 1025.0 |
| 20260506083059 | 49 | 0 | 0.0 | 0.0 | 0.00 | 0.00 | 0.00 | 63 | 1025.1 |
| 20260506082158 | 47 | 0 | 0.0 | 0.0 | 0.00 | 0.00 | 0.00 | 66 | 1025.1 |
| 20260506081257 | 47 | 0 | 0.0 | 0.0 | 0.00 | 0.00 | 0.00 | 70 | 1025.1 |
| 20260506080357 | 46 | 0 | 0.0 | 0.0 | 0.00 | 0.00 | 0.00 | 71 | 1025.1 |
| 20260506073011 | 43 | 0 | 0.0 | 0.0 | 0.00 | 0.01 | 0.00 | 75 | 1025.6 |
| 20260506071857 | 42 | 0 | 0.0 | 0.0 | 0.00 | 0.01 | 0.00 | 79 | 1025.5 |
| 20260506070959 | 41 | 0 | 0.0 | 0.0 | 0.00 | 0.01 | 0.00 | 82 | 1025.5 |
| 20260506070308 | 40 | 0 | 0.0 | 0.0 | 0.00 | 0.01 | 0.00 | 87 | 1025.5 |
| 20260506062457 | 35 | 360 | 0.0 | 2.0 | 0.00 | 0.02 | 0.00 | 96 | 1025.6 |
| 20260506061810 | 35 | 360 | 0.0 | 2.0 | 0.00 | 0.02 | 0.00 | 96 | 1025.7 |
| 20260506060657 | 34 | 0 | 0.0 | 0.0 | 0.00 | 0.02 | 0.00 | 97 | 1025.7 |
| 20260506051257 | 28 | 0 | 0.0 | 0.0 | 0.00 | 0.02 | 0.00 | 98 | 1025.8 |
| 20260506050357 | 28 | 0 | 0.0 | 0.0 | 0.00 | 0.02 | 0.00 | 97 | 1025.9 |
| 20260506044558 | 27 | 0 | 0.0 | 0.0 | 0.00 | 0.02 | 0.00 | 97 | 1025.8 |
| 20260506043659 | 28 | 0 | 0.0 | 0.0 | 0.00 | 0.02 | 0.00 | 97 | 1025.9 |
| 20260506042757 | 28 | 0 | 0.0 | 0.0 | 0.00 | 0.02 | 0.00 | 97 | 1025.7 |
| 20260506041857 | 27 | 0 | 0.0 | 0.0 | 0.00 | 0.02 | 0.00 | 97 | 1025.9 |
| 20260506040958 | 28 | 0 | 0.0 | 0.0 | 0.00 | 0.02 | 0.00 | 97 | 1025.6 |
| 20260506040057 | 28 | 0 | 0.0 | 0.0 | 0.00 | 0.02 | 0.00 | 97 | 1025.9 |
| 20260506035157 | 28 | 0 | 0.0 | 0.0 | 0.00 | 0.02 | 0.00 | 97 | 1025.7 |
| 20260506034258 | 28 | 0 | 0.0 | 0.0 | 0.00 | 0.02 | 0.00 | 97 | 1026.0 |
| 20260506033359 | 28 | 0 | 0.0 | 0.0 | 0.00 | 0.02 | 0.00 | 97 | 1026.1 |
| 20260506032457 | 28 | 0 | 0.0 | 0.0 | 0.00 | 0.02 | 0.00 | 97 | 1025.7 |
| 20260506031807 | 28 | 0 | 0.0 | 0.0 | 0.00 | 0.02 | 0.00 | 97 | 1025.9 |
| 20260506030657 | 28 | 0 | 0.0 | 0.0 | 0.00 | 0.02 | 0.00 | 97 | 1025.8 |
| 20260506025757 | 27 | 0 | 0.0 | 0.0 | 0.00 | 0.02 | 0.00 | 97 | 1025.8 |
| 20260506024858 | 28 | 0 | 0.0 | 0.0 | 0.00 | 0.02 | 0.00 | 96 | 1025.9 |
| 20260506023958 | 29 | 0 | 0.0 | 0.0 | 0.00 | 0.02 | 0.00 | 97 | 1026.0 |
| 20260506023057 | 29 | 0 | 0.0 | 0.0 | 0.00 | 0.02 | 0.00 | 96 | 1025.8 |
| 20260506022158 | 28 | 360 | 0.0 | 2.0 | 0.00 | 0.02 | 0.00 | 96 | 1025.7 |
| 20260506021259 | 29 | 360 | 0.0 | 2.0 | 0.00 | 0.02 | 0.00 | 96 | 1025.9 |
| 20260506020359 | 28 | 360 | 0.0 | 2.0 | 0.00 | 0.02 | 0.00 | 96 | 1026.0 |
| 20260506014553 | 29 | 0 | 0.0 | 0.0 | 0.00 | 0.02 | 0.00 | 96 | 1025.8 |
| 20260506013653 | 29 | 0 | 0.0 | 0.0 | 0.00 | 0.02 | 0.00 | 95 | 1026.1 |
| 20260506012754 | 29 | 0 | 0.0 | 0.0 | 0.00 | 0.02 | 0.00 | 95 | 1025.9 |
| 20260506011854 | 30 | 0 | 0.0 | 0.0 | 0.00 | 0.02 | 0.00 | 95 | 1026.0 |
| 20260506010953 | 29 | 0 | 0.0 | 0.0 | 0.00 | 0.02 | 0.00 | 95 | 1026.2 |
| 20260506010054 | 30 | 0 | 0.0 | 0.0 | 0.00 | 0.02 | 0.00 | 95 | 1026.0 |
| 20260506005406 | 30 | 0 | 0.0 | 0.0 | 0.00 | 0.02 | 0.00 | 95 | 1026.0 |
| 20260506004254 | 29 | 0 | 0.0 | 0.0 | 0.00 | 0.02 | 0.00 | 95 | 1026.1 |
| 20260506003353 | 30 | 0 | 0.0 | 0.0 | 0.00 | 0.02 | 0.00 | 95 | 1026.2 |
| 20260506002456 | 29 | 0 | 0.0 | 0.0 | 0.00 | 0.02 | 0.00 | 95 | 1026.1 |
| 20260506001553 | 30 | 0 | 0.0 | 0.0 | 0.00 | 0.02 | 0.00 | 94 | 1026.1 |
| 20260506000654 | 31 | 0 | 0.0 | 0.0 | 0.00 | 0.02 | 0.00 | 94 | 1026.2 |
| 20260505235754 | 30 | 0 | 0.0 | 0.0 | 0.00 | 0.02 | 0.00 | 94 | 1026.1 |
| 20260505234854 | 30 | 0 | 0.0 | 0.0 | 0.00 | 0.02 | 0.00 | 93 | 1026.2 |
| 20260505233953 | 31 | 0 | 0.0 | 0.0 | 0.00 | 0.02 | 0.00 | 94 | 1026.3 |
| 20260505233054 | 31 | 0 | 0.0 | 0.0 | 0.00 | 0.02 | 0.00 | 93 | 1026.4 |
| 20260505232405 | 31 | 0 | 0.0 | 0.0 | 0.00 | 0.02 | 0.00 | 93 | 1026.4 |
| 20260505231254 | 31 | 0 | 0.0 | 0.0 | 0.00 | 0.02 | 0.00 | 92 | 1026.3 |
| 20260505230353 | 31 | 0 | 0.0 | 0.0 | 0.00 | 0.02 | 0.00 | 92 | 1026.5 |
| 20260505225454 | 31 | 0 | 0.0 | 0.0 | 0.00 | 0.02 | 0.02 | 91 | 1026.2 |
| 20260505224553 | 32 | 0 | 0.0 | 0.0 | 0.00 | 0.02 | 0.02 | 91 | 1026.3 |
| 20260505223907 | 32 | 0 | 0.0 | 0.0 | 0.00 | 0.02 | 0.02 | 91 | 1026.3 |
| 20260505222755 | 32 | 360 | 0.0 | 2.0 | 0.00 | 0.02 | 0.02 | 90 | 1026.4 |
| 20260505221854 | 33 | 0 | 0.0 | 0.0 | 0.00 | 0.02 | 0.02 | 90 | 1026.4 |
| 20260505220953 | 33 | 0 | 0.0 | 0.0 | 0.00 | 0.02 | 0.02 | 90 | 1026.4 |
| 20260505220306 | 33 | 0 | 0.0 | 0.0 | 0.00 | 0.02 | 0.02 | 89 | 1026.3 |
| 20260505215154 | 33 | 0 | 0.0 | 0.0 | 0.00 | 0.02 | 0.02 | 88 | 1026.3 |
| 20260505214253 | 33 | 0 | 0.0 | 0.0 | 0.00 | 0.02 | 0.02 | 87 | 1026.4 |
| 20260505213354 | 34 | 0 | 0.0 | 0.0 | 0.00 | 0.02 | 0.02 | 86 | 1026.2 |
| 20260505212453 | 35 | 0 | 0.0 | 0.0 | 0.00 | 0.02 | 0.02 | 85 | 1026.2 |
| 20260505211808 | 35 | 0 | 0.0 | 0.0 | 0.00 | 0.04 | 0.02 | 84 | 1026.3 |
| 20260505210653 | 35 | 0 | 0.0 | 0.0 | 0.00 | 0.04 | 0.02 | 81 | 1026.3 |
| 20260505205753 | 36 | 0 | 0.0 | 0.0 | 0.00 | 0.04 | 0.02 | 80 | 1026.1 |
| 20260505204853 | 37 | 0 | 0.0 | 0.0 | 0.00 | 0.05 | 0.02 | 80 | 1026.4 |
| 20260505203953 | 38 | 0 | 0.0 | 0.0 | 0.00 | 0.05 | 0.02 | 79 | 1026.3 |
| 20260505203054 | 39 | 360 | 0.0 | 2.0 | 0.00 | 0.05 | 0.02 | 77 | 1026.1 |
| 20260505202153 | 41 | 360 | 1.0 | 2.0 | 0.00 | 0.05 | 0.02 | 73 | 1025.9 |
| 20260505201504 | 41 | 360 | 0.0 | 2.0 | 0.00 | 0.05 | 0.02 | 69 | 1026.1 |
| 20260505200355 | 42 | 360 | 0.0 | 4.0 | 0.00 | 0.05 | 0.02 | 67 | 1025.9 |
| 20260505195454 | 43 | 353 | 0.0 | 4.0 | 0.00 | 0.05 | 0.02 | 64 | 1026.1 |
| 20260505194555 | 43 | 340 | 2.0 | 4.0 | 0.00 | 0.05 | 0.02 | 64 | 1025.9 |
| 20260505193655 | 43 | 359 | 2.0 | 4.0 | 0.00 | 0.05 | 0.02 | 63 | 1026.0 |
| 20260505192754 | 44 | 360 | 2.0 | 4.0 | 0.00 | 0.05 | 0.02 | 65 | 1025.9 |
| 20260505191855 | 44 | 19 | 2.0 | 6.0 | 0.00 | 0.05 | 0.02 | 64 | 1025.7 |
| 20260505191206 | 44 | 9 | 2.0 | 6.0 | 0.00 | 0.05 | 0.02 | 63 | 1025.6 |
| 20260505190054 | 45 | 359 | 1.0 | 6.0 | 0.00 | 0.05 | 0.02 | 59 | 1025.6 |
| 20260505185153 | 45 | 359 | 3.0 | 6.0 | 0.00 | 0.05 | 0.02 | 56 | 1025.5 |
| 20260505184253 | 46 | 355 | 2.0 | 8.0 | 0.00 | 0.05 | 0.02 | 57 | 1025.4 |
| 20260505183354 | 46 | 356 | 4.0 | 11.0 | 0.00 | 0.05 | 0.02 | 56 | 1025.5 |
| 20260505182453 | 46 | 6 | 7.0 | 11.0 | 0.00 | 0.05 | 0.02 | 53 | 1025.5 |
| 20260505181554 | 47 | 347 | 2.0 | 8.0 | 0.00 | 0.05 | 0.02 | 54 | 1025.6 |
| 20260505180655 | 46 | 345 | 4.0 | 8.0 | 0.00 | 0.05 | 0.02 | 54 | 1025.4 |
| 20260505175753 | 47 | 352 | 4.0 | 13.0 | 0.00 | 0.05 | 0.02 | 54 | 1025.5 |
| 20260505174853 | 47 | 1 | 2.0 | 11.0 | 0.00 | 0.05 | 0.02 | 52 | 1025.4 |
| 20260505173953 | 47 | 5 | 4.0 | 8.0 | 0.00 | 0.05 | 0.02 | 52 | 1025.4 |
| 20260505173054 | 47 | 3 | 2.0 | 9.0 | 0.00 | 0.05 | 0.02 | 51 | 1025.6 |
| 20260505172153 | 48 | 350 | 4.0 | 7.0 | 0.00 | 0.05 | 0.02 | 46 | 1025.7 |
| 20260505171253 | 48 | 342 | 2.0 | 11.0 | 0.00 | 0.05 | 0.02 | 46 | 1025.5 |
| 20260505170355 | 48 | 355 | 3.0 | 15.0 | 0.00 | 0.05 | 0.02 | 44 | 1025.3 |
| 20260505165458 | 48 | 348 | 5.0 | 14.0 | 0.00 | 0.05 | 0.02 | 44 | 1025.4 |
| 20260505164558 | 49 | 5 | 5.0 | 11.0 | 0.00 | 0.05 | 0.02 | 44 | 1025.4 |
| 20260505163905 | 48 | 349 | 4.0 | 13.0 | 0.00 | 0.05 | 0.02 | 47 | 1025.2 |
| 20260505162754 | 48 | 343 | 4.0 | 11.0 | 0.00 | 0.05 | 0.02 | 45 | 1025.2 |
| 20260505161853 | 48 | 354 | 5.0 | 8.0 | 0.00 | 0.05 | 0.02 | 47 | 1025.3 |
| 20260505160953 | 48 | 337 | 4.0 | 11.0 | 0.00 | 0.05 | 0.02 | 46 | 1025.4 |
| 20260505153353 | 48 | 352 | 4.0 | 8.0 | 0.00 | 0.05 | 0.02 | 55 | 1025.4 |
| 20260505152704 | 48 | 11 | 2.0 | 11.0 | 0.00 | 0.05 | 0.02 | 58 | 1025.4 |
| 20260505151553 | 48 | 358 | 2.0 | 11.0 | 0.00 | 0.05 | 0.02 | 57 | 1025.3 |
| 20260505150653 | 48 | 356 | 3.0 | 11.0 | 0.00 | 0.05 | 0.02 | 57 | 1025.5 |